Voltar ao catálogo

STARLINK-31121

AtivoComunicaçõesVLEO
NORAD 58685·PAYLOAD·🇺🇸 United States

Lançado Dec 29, 2023 de Cape Canaveral Space Force Station

Loading…

Próximas Passagens (próximas 24 horas)

TLE

AtualizadoSource: CelesTrak SupGP

Época: Sep 14, 2026, 13:37 UTC

1 58685C 23211U   26257.56784722  .00021857  00000+0  79147-3 0  2574
2 58685  43.0027  98.2233 0001787 264.3647 156.8216 15.27574743    17

Acompanhe STARLINK-31121 em tempo real com AllMySat

Download on the App Store